Regional Weather Roundup
Issued by NWS

Home | Current Version | Previous Version | Graphics & Text | Print | Product List | Glossary On
Versions: 1 2 3 4 5 6 7 8 9 10 11 12 13 14 15 16 17 18 19 20 21 22 23 24 25 26 27 28 29 30 31 32 33 34 35 36 37 38 39 40 41 42 43 44 45 46 47 48 49 50
000
ASUS43 KDMX 181606
RWRIA

WEATHER ROUNDUP FOR IOWA
NATIONAL WEATHER SERVICE DES MOINES IA
1100 AM CDT FRI AUG 18 2017

NOTE: "FAIR" INDICATES FEW OR NO CLOUDS BELOW 12,000 FEET WITH NO
SIGNIFICANT WEATHER AND/OR OBSTRUCTIONS TO VISIBILITY.

* - THESE STATIONS ARE NOT NWS STATIONS...THUS NOT UNDER NWS
QUALITY CONTROL.  THEY ALSO DO NOT REPORT WEATHER SUCH
AS PRECIPITATION OR FOG.

IAZ001>003-012>014-020>022-031>034-043>046-181700-
   NORTHWEST IOWA

CITY           SKY/WX    TMP DP  RH WIND       PRES   REMARKS
CARROLL *      SUNNY     75  64  69 VRB7G13   29.93R
CHEROKEE *     SUNNY     73  63  68 E9        29.95S
DENISON *      SUNNY     75  64  69 NW10      29.96R
LE MARS *      SUNNY     73  63  68 VRB7G13   29.94S
ORANGE CITY *  SUNNY     75  63  64 E9        29.95S
SHELDON *      SUNNY     72  61  68 E8        29.94F
SIOUX CITY     SUNNY     76  65  68 CALM      29.94R
SPENCER        SUNNY     71  59  65 E7        29.96R
STORM LAKE *   SUNNY     72  63  73 NE12      29.96R
$$

IAZ055>058-069>071-079>083-090>094-181700-
   SOUTHWEST IOWA

CITY           SKY/WX    TMP DP  RH WIND       PRES   REMARKS
ATLANTIC *     SUNNY     77  64  65 CALM      29.93F
AUDUBON *      SUNNY     79  66  65 SW5       29.94S HX  81
CLARINDA *     CLOUDY    75  66  73 VRB6G13   29.96S
COUNCIL BLFS * SUNNY     77  63  61 NW8       29.95S
CRESTON *      CLOUDY    73  63  68 W6        29.96S
HARLAN  *      SUNNY     77  64  65 W7        29.97S
LAMONI         MOSUNNY   74  64  71 S7        29.93F
RED OAK *      SUNNY     79  63  57 N6        29.94F HX  80
SHENANDOAH *   PTSUNNY   77  66  69 NW8       29.95S
$$

IAZ047>049-059>061-072>074-084-181700-
   CENTRAL IOWA

CITY           SKY/WX    TMP DP  RH WIND       PRES   REMARKS
AMES           SUNNY     73  66  78 SE7       29.93R
ANKENY *       MOSUNNY   73  64  73 CALM      29.93F
BOONE *        SUNNY     73  64  73 SE6       29.93S
CHARITON *     CLOUDY    72  64  78 S10       29.92F
DES MOINES     CLOUDY    75  62  64 S5        29.92S
GRINNELL*      CLOUDY    72  64  75 SE5       29.95R
KNOXVILLE *    CLOUDY    73  63  68 SE8       29.91F
MARSHALLTOWN   CLOUDY    72  65  78 CALM      29.94R
NEWTON *       SUNNY     73  64  73 S6        29.94R
PELLA *        CLOUDY    75  63  65 S6        29.94S
PERRY *          N/A     77  67  71 S3        29.92S
$$

IAZ004>006-015-016-023>025-035-036-181700-
   NORTH CENTRAL IOWA

CITY           SKY/WX    TMP DP  RH WIND       PRES   REMARKS
ALGONA *       CLOUDY    66  64  94 NE7       29.97R
CLARION *      CLOUDY    70  66  88 VRB6      29.95R
ESTHERVILLE    PTSUNNY   64  62  93 SE3       29.95R
FORT DODGE *   MOSUNNY   72  63  73 E5        29.96R
MASON CITY     CLOUDY    67  60  78 NW6       29.96R
FOREST CITY *  CLOUDY    64  63  94 CALM      29.96R
WEBSTER CITY * SUNNY     72  63  73 SE5       29.92F
IOWA FALLS *     N/A     72  61  68 E3        29.96S
$$

IAZ007>011-017>019-026>030-037>042-050>054-066-181700-
   NORTHEAST IOWA

CITY           SKY/WX    TMP DP  RH WIND       PRES   REMARKS
CEDAR RAPIDS   CLOUDY    71  63  75 SW3       29.93R
CHARLES CITY * PTSUNNY   66  63  88 CALM      29.94S
CLINTON *      MOSUNNY   71  63  75 W7        29.93S
DECORAH *      CLOUDY    68  59  73 NW6       29.92R
DUBUQUE        SUNNY     71  59  65 NW12      29.93R
MONTICELLO *   SUNNY     72  59  64 N5        29.92S
OELWEIN *      PTSUNNY   66  64  94 W6        29.94R
WATERLOO       CLOUDY    67  62  84 W3        29.94R
$$

IAZ064-065-067-068-078-181700-
   EAST CENTRAL IOWA

CITY           SKY/WX    TMP DP  RH WIND       PRES   REMARKS
DAVENPORT      MOSUNNY   74  61  63 NW7       29.95R
IOWA CITY      MOSUNNY   74  63  68 W5        29.95R
MT. PLEASANT * MOSUNNY   76  63  62 CALM      29.96S
MUSCATINE *    MOSUNNY   77  63  61 W7        29.96R
QUAD CITIES    MOSUNNY   79  61  53 NW6       29.92S HX  80
$$

IAZ062-063-075>077-085>089-095>099-181700-
   SOUTHEAST IOWA

CITY           SKY/WX    TMP DP  RH WIND       PRES   REMARKS
BURLINGTON     MOSUNNY   75  66  73 SW5       29.95F
FAIRFIELD *    MOSUNNY   73  63  68 CALM      29.95S
FORT MADISON * MOSUNNY   73  66  78 CALM      29.97S
KEOKUK *       MOSUNNY   79  64  61 CALM      29.96S HX  81
OSKALOOSA *      N/A     71  64  78 SE7       29.94S
CENTERVILLE *    N/A     73  64  73 CALM      29.96S
OTTUMWA        CLOUDY    72  63  73 SE6       29.94S
WASHINGTON *   CLOUDY    73  66  78 CALM      29.96S
$$

ABBREVIATIONS USED IN REMARKS
   TC - TEMPERATURES IN CELSIUS
  WCI - WIND CHILL INDEX
   HX - HEAT INDEX
  VSB - VISIBILITY
$$





USA.gov is the U.S. government's official web portal to all federal, state and local government web resources and services.